Miscellaneous Local Product
Issued by NWS Hastings, NE

Home | Current Version | Previous Version | Graphics & Text | Print | Product List | Glossary On
Versions: 1 2 3 4 5 6 7 8 9 10 11 12 13 14 15 16 17 18 19 20 21 22 23 24 25 26 27 28 29 30 31 32 33 34 35 36 37 38 39 40 41 42 43 44 45 46 47 48 49 50
000
AXUS43 KGID 212102
MISGRI

GID CWA HOURLY WEATHER ROUNDUP
NATIONAL WEATHER SERVICE HASTINGS NE
400 PM CDT THU MAY 21 2015

NOTE: "FAIR" INDICATES FEW OR NO CLOUDS BELOW 12,000 FEET WITH NO
SIGNIFICANT WEATHER AND/OR OBSTRUCTIONS TO VISIBILITY.

...SOUTH CENTRAL NEBRASKA...

CITY           SKY/WX    TMP DP  RH WIND       PRES   REMARKS
GRAND ISLAND   SUNNY     64  33  31 CALM      30.25F
HASTINGS       SUNNY     64  36  35 VRB5      30.24F
KEARNEY        SUNNY     63  34  34 CALM      30.24F
ORD            SUNNY     64  36  35 N3        30.22F
YORK           SUNNY     64  39  39 S5        30.25F
AURORA         SUNNY     64  36  34 SW3       30.25F
LEXINGTON      SUNNY     62  42  47 SE6       30.24F
HOLDREGE       SUNNY     62  34  34 CALM      30.24F
HEBRON         SUNNY     65  32  29 NE3       30.25F

...NEBRASKA PANHANDLE...

CITY           SKY/WX    TMP DP  RH WIND       PRES   REMARKS
CHADRON        CLOUDY    57  42  57 SE13      30.19S
ALLIANCE       CLOUDY    57  43  59 S13       30.20F
SCOTTSBLUFF    CLOUDY    55  42  61 SE15      30.18F
SIDNEY         CLOUDY    53  42  66 SE13      30.21F

...WESTERN AND NORTH CENTRAL NEBRASKA...

CITY           SKY/WX    TMP DP  RH WIND       PRES   REMARKS
VALENTINE      SUNNY     64  31  28 S13G20    30.21F
AINSWORTH      SUNNY     64  34  32 S6        30.22F
ONEILL         SUNNY     66  35  31 CALM      30.23S
BROKEN BOW     SUNNY     64  37  36 SW6       30.23F
IMPERIAL       CLOUDY    57  43  59 SE14      30.23F
NORTH PLATTE   MOSUNNY   62  40  44 SE7       30.23F
MCCOOK         CLOUDY    62  39  42 S7        30.24F

...EASTERN NEBRASKA...

CITY           SKY/WX    TMP DP  RH WIND       PRES   REMARKS
NORFOLK        SUNNY     69  36  29 CALM      30.20F
SO SIOUX CITY  SUNNY     75  35  23 NW10      30.16F
TEKAMAH        SUNNY     76  38  25 NW15      30.17F
COLUMBUS       SUNNY     68  36  30 W6        30.25F
ALBION         SUNNY     66  34  30 S3        30.22F
OMAHA EPPLEY   MOSUNNY   73  40  30 W7        30.18F
OFFUTT AFB     SUNNY     71  42  35 SW7       30.18F
MILLARD        SUNNY     71  39  31 NW6       30.19F
LINCOLN        SUNNY     69  39  33 W8G17     30.23F
NEBRASKA CITY  SUNNY     68  33  26 W6        30.21F
BEATRICE       SUNNY     66  40  37 W6        30.24F
FALLS CITY     SUNNY     68  41  37 W5        30.22F

...NORTHERN KANSAS...

CITY           SKY/WX    TMP DP  RH WIND       PRES   REMARKS
GOODLAND       CLOUDY    57  43  59 SE9       30.22F
HILL CITY      SUNNY     64  41  42 VRB5      30.25F
NORTON         CLOUDY    63  34  34 E8        30.24F
PHILLIPSBURG   SUNNY     66  37  34 E7        30.25F
SMITH CENTER   SUNNY     64  39  39 SE6       30.26F
HAYS           MOSUNNY   61  39  44 SE7       30.26F
RUSSELL        SUNNY     63  42  46 E7        30.25F
CONCORDIA      SUNNY     65  38  36 S3        30.25F
SALINA         SUNNY     65  40  39 SE6       30.26F
TOPEKA         MOSUNNY   67  44  43 VRB7      30.24F



USA.gov is the U.S. government's official web portal to all federal, state and local government web resources and services.